GFSGL_850_rhum_204.txt.gz
RH
19 18 16 19 26 28 31 34 33 33 45 59 68 89 99 100 100 100 99 98 86 78 82 90 97 99 96 94 94 100 100 100 99 100 99 96 99 100 100 100 98 93 89
22 22 26 33 35 34 36 33 46 60 65 74 86 92 98 99 99 99 97 98 100 100 100 100 100 99 98 99 96 100 100 93 99 100 99 98 100 100 98 100 99 92 84
27 33 35 34 34 39 41 54 64 67 71 88 100 96 88 88 90 98 100 100 99 99 100 99 98 99 100 100 98 100 100 100 100 97 97 100 100 100 100 99 99 90 92
35 37 37 36 40 44 59 66 66 69 71 80 98 99 98 99 100 100 99 99 99 100 99 99 98 100 100 99 100 99 100 100 100 99 100 100 98 100 100 98 98 99 97
40 40 38 41 45 59 66 64 63 65 88 98 98 99 98 95 93 98 100 98 100 99 99 100 100 98 99 99 98 100 100 100 100 100 100 100 99 98 98 98 98 97 98
41 39 40 47 56 64 66 66 66 74 89 94 96 97 94 94 98 100 94 98 99 100 99 99 100 100 100 100 99 99 100 99 99 100 100 98 98 100 99 97 97 97 98
41 43 50 54 60 66 68 69 72 80 94 98 96 97 95 93 91 87 93 98 99 99 99 99 98 99 100 100 100 100 100 100 96 95 96 99 98 97 96 97 97 94 95
44 52 57 64 69 70 70 74 84 96 99 98 98 95 95 86 89 94 96 98 99 100 100 100 100 96 99 99 100 100 100 100 100 100 98 96 99 98 96 90 96 97 97
53 58 64 72 73 72 75 84 91 99 98 98 97 97 86 90 92 94 94 93 98 99 98 99 100 98 100 100 100 100 100 100 100 100 100 100 100 100 99 98 97 97 96
58 64 73 78 77 77 82 91 96 100 98 96 94 91 93 88 88 87 89 96 99 99 100 100 100 100 100 100 100 100 100 99 99 98 99 99 100 99 99 99 94 95 95
62 71 77 79 78 81 89 95 98 96 90 93 89 95 93 92 92 90 91 99 99 99 99 99 100 100 100 100 100 100 100 99 100 100 99 99 99 99 99 99 99 97 90
68 74 80 81 80 87 90 98 99 91 85 92 90 90 91 90 95 95 96 96 98 99 99 99 99 99 100 100 99 99 100 100 99 99 100 99 98 98 98 98 99 99 98
69 74 81 81 86 88 97 100 96 88 90 92 93 94 92 89 94 97 97 97 98 97 98 99 99 99 99 99 99 100 99 100 99 99 98 98 98 98 97 98 98 98 97
71 81 82 83 86 95 99 96 89 87 95 91 96 97 97 90 94 97 97 97 97 97 98 98 98 99 99 99 99 99 99 99 99 98 98 98 98 98 98 97 97 98 89
75 81 83 86 89 99 97 88 91 95 92 94 96 97 96 89 97 98 97 97 97 96 96 96 97 97 97 98 98 99 99 99 99 99 98 97 97 97 97 97 99 92 77
78 82 89 90 94 100 92 94 96 92 92 94 98 98 97 96 97 96 96 96 97 98 97 96 96 97 97 97 98 98 98 99 98 98 98 97 96 99 99 100 100 90 81
83 86 100 94 95 90 93 95 89 87 93 95 97 99 100 96 96 96 97 96 96 97 94 96 96 97 97 97 97 97 97 98 98 98 97 97 96 96 91 95 100 100 100
97 100 100 98 93 89 87 87 92 91 93 94 93 94 96 93 97 98 97 96 95 96 94 92 71 48 58 78 92 94 95 96 98 99 99 100 99 94 99 100 100 100 100
100 100 100 89 90 88 88 90 92 94 93 92 94 91 93 94 90 91 94 92 96 96 97 97 81 74 46 31 31 35 44 55 59 66 75 77 79 88 95 97 96 96 92
98 100 98 83 88 90 89 90 91 92 93 93 92 94 95 93 89 88 87 90 91 93 95 95 93 88 87 92 74 42 37 36 34 33 34 38 42 45 43 40 36 32 32
98 100 98 94 88 91 93 93 94 94 93 93 94 96 93 88 89 90 91 90 91 93 94 94 94 94 89 77 66 62 56 52 57 57 62 66 71 73 73 69 64 67 70
99 98 96 94 95 91 94 95 96 96 95 92 96 97 96 90 90 88 87 87 90 90 92 92 92 92 93 94 93 80 68 64 67 78 93 96 94 92 90 91 95 96 96
99 97 95 95 94 95 93 95 97 97 95 93 95 94 93 93 95 95 93 90 88 89 92 91 89 88 90 90 92 93 91 91 92 94 94 96 95 95 96 95 95 96 96
97 94 94 94 93 94 94 94 96 95 93 94 94 91 89 88 90 91 92 93 92 91 91 90 90 88 87 87 88 90 91 91 92 91 91 91 91 92 93 92 92 92 93
97 92 92 96 97 95 96 95 93 91 91 91 89 88 87 87 87 90 92 91 90 89 90 90 89 88 89 88 86 86 87 90 89 89 90 92 93 94 91 86 82 81 87
93 94 93 94 97 97 97 96 95 94 92 92 92 91 91 89 89 88 90 90 87 85 85 85 86 84 84 84 84 85 86 85 84 85 83 82 84 88 90 86 84 82 80

GFSGL_850_rhum_207.txt.gz
RH
19 19 17 15 19 22 20 20 26 27 34 47 53 57 63 92 98 97 90 92 92 92 93 97 99 99 98 100 98 88 92 99 99 100 97 87 90 97 99 100 100 100 100
20 17 15 19 24 22 20 25 30 43 53 54 58 65 86 96 100 99 98 99 99 98 98 98 99 100 100 100 100 100 92 99 99 98 95 86 92 94 98 99 100 100 99
16 14 20 28 30 25 30 34 44 57 59 62 67 86 94 98 99 99 100 99 100 99 99 100 99 99 98 98 98 98 100 99 97 98 99 94 93 100 100 100 100 99 99
16 25 33 35 31 35 38 46 60 63 65 66 74 92 98 94 90 91 96 100 100 100 97 98 98 100 99 98 99 99 98 100 100 99 97 95 98 100 100 98 98 99 99
28 37 39 35 39 43 53 63 64 64 68 77 87 91 86 85 83 96 98 94 93 88 90 95 98 100 100 100 99 99 99 99 100 99 99 100 99 99 98 99 100 99 99
38 39 38 41 49 58 65 66 65 68 74 85 89 85 82 83 86 84 88 89 88 94 98 98 99 99 99 100 100 100 99 99 100 100 100 98 99 100 100 98 98 98 98
39 38 44 54 58 65 66 67 70 74 84 88 83 83 83 81 81 83 89 98 99 98 99 99 98 97 100 100 100 100 100 99 100 97 98 99 99 97 99 100 100 97 100
39 48 54 55 60 65 66 68 72 80 86 84 84 86 83 84 86 86 90 95 95 97 100 99 100 98 99 100 100 100 100 100 100 100 98 90 93 98 97 97 98 98 97
45 49 54 62 65 70 70 74 81 83 82 82 84 87 88 89 91 90 91 87 94 99 99 100 99 99 98 97 98 99 100 100 99 100 99 90 96 100 99 97 97 97 98
42 53 61 64 70 73 74 79 83 85 86 86 86 88 87 88 92 98 91 91 89 99 99 99 99 99 98 100 100 98 100 100 98 100 100 100 100 99 98 98 92 96 97
50 56 60 68 75 73 77 84 84 85 84 88 87 86 86 89 90 91 89 90 91 100 99 99 100 99 99 100 100 100 100 100 100 99 98 98 98 98 97 98 98 96 94
53 57 64 73 75 76 84 84 85 86 89 90 87 88 87 84 87 90 96 94 96 98 99 99 100 99 99 100 99 99 99 98 98 99 99 98 97 97 97 97 97 97 98
56 63 68 75 76 80 82 83 89 90 91 91 87 93 88 82 85 90 97 96 94 95 98 99 100 100 98 99 99 99 100 99 99 98 97 97 97 97 96 97 97 97 98
64 67 71 74 78 82 81 91 94 95 93 88 91 99 87 81 89 92 90 94 99 97 97 97 98 99 100 100 100 99 99 99 99 97 97 97 96 96 96 97 97 97 97
71 69 70 75 81 85 87 100 98 94 88 84 98 89 83 89 99 99 91 88 95 100 98 97 94 97 98 99 99 99 100 100 99 99 97 96 96 96 97 97 97 96 92
74 72 76 80 85 91 97 100 98 94 92 96 96 82 81 88 90 92 94 94 97 98 89 92 96 96 96 98 98 98 99 98 98 98 97 97 96 97 96 97 97 97 96
82 88 93 81 86 92 100 98 95 95 94 94 93 89 86 89 89 85 89 91 95 95 87 95 96 97 97 97 98 98 97 98 98 97 97 97 96 97 97 97 96 96 97
97 100 98 85 87 90 94 95 95 96 95 94 95 89 88 87 85 86 89 87 82 83 84 80 88 92 96 97 97 97 97 98 98 97 97 97 97 96 96 96 98 93 81
99 100 100 88 91 90 95 96 93 91 91 91 94 90 89 86 82 81 83 83 87 87 85 65 55 71 53 59 87 93 95 96 96 97 97 97 97 96 96 97 98 98 98
99 99 98 90 91 90 95 96 94 94 95 95 93 92 91 86 79 81 81 82 86 90 90 89 92 65 43 58 66 41 33 41 57 71 80 89 95 98 96 97 98 98 100
99 98 97 90 90 92 95 96 95 95 94 94 91 90 90 84 85 86 86 87 88 89 89 88 87 90 93 92 84 61 55 51 46 49 52 53 50 43 40 39 40 42 39
97 98 95 94 89 92 94 96 98 96 94 91 92 93 92 87 87 89 91 91 91 90 88 86 88 89 76 73 84 86 66 75 86 93 95 92 88 86 94 94 93 87 75
96 96 95 94 93 93 95 97 98 96 94 91 90 90 90 90 90 90 90 92 90 88 88 87 86 87 88 88 88 86 78 76 84 89 89 90 90 88 89 90 93 94 95
95 97 98 96 93 92 96 98 96 94 92 91 89 86 85 86 87 89 91 91 89 89 88 84 84 86 86 86 87 87 86 86 88 90 88 87 88 88 88 89 91 93 94
96 96 96 95 94 95 98 97 96 95 95 90 86 84 85 86 90 90 89 89 88 88 89 86 86 86 85 84 85 84 84 84 83 84 85 85 83 81 77 75 75 78 83
97 97 96 96 95 95 95 90 91 93 92 87 85 85 84 85 86 86 87 87 84 85 86 86 86 84 84 85 86 85 83 80 78 78 80 82 82 81 76 72 72 71 75

GFSGL_850_rhum_210.txt.gz
RH
22 19 18 17 13 12 15 17 18 18 23 27 38 48 51 55 72 87 84 89 97 99 99 98 95 95 91 90 92 94 100 98 98 92 91 96 95 86 87 94 100 100 100
21 19 18 14 14 17 19 18 20 26 32 48 58 56 57 63 60 67 87 98 99 100 99 99 98 98 98 99 99 100 98 99 100 95 91 99 98 93 84 85 98 100 98
20 19 15 16 19 22 20 24 33 40 46 54 56 56 58 61 75 81 92 100 99 97 97 98 98 98 98 98 98 97 97 98 99 100 100 100 98 95 96 100 100 100 100
20 16 18 21 24 23 30 36 40 45 52 56 56 60 70 80 81 83 86 86 80 81 82 89 93 96 99 99 99 98 98 98 98 98 100 100 99 99 98 98 100 100 100
17 18 22 25 25 34 39 42 48 53 58 60 66 74 81 79 80 82 82 83 83 92 90 94 92 98 97 100 99 99 99 99 99 100 99 100 100 99 98 99 100 100 100
19 22 26 26 38 40 43 50 54 59 62 70 80 83 81 82 81 80 81 82 82 94 89 90 96 98 100 100 100 100 100 99 98 100 100 99 100 99 99 98 98 98 99
23 24 26 38 39 46 51 57 62 64 72 80 82 80 78 82 83 84 80 81 86 85 94 99 98 100 100 100 98 100 100 100 100 99 99 99 98 98 98 100 100 98 100
29 32 31 36 45 50 57 63 66 74 81 81 81 78 78 82 85 82 84 86 81 89 98 99 98 97 96 100 100 100 99 100 100 99 99 100 98 98 96 92 98 100 98
35 34 35 44 48 54 64 69 75 80 82 82 78 76 79 80 81 84 87 78 86 94 95 98 99 96 99 100 100 100 100 100 100 100 99 100 98 98 93 99 98 98 98
37 34 43 49 55 66 71 74 79 81 78 78 79 79 83 76 82 88 84 85 95 93 89 93 91 98 100 99 100 99 99 100 100 100 100 100 100 100 100 99 98 99 96
40 41 48 55 65 71 74 77 78 79 79 80 77 79 77 78 82 89 84 90 92 93 94 95 96 100 98 97 98 100 100 100 100 98 98 100 100 99 98 98 98 98 95
42 51 57 63 69 73 74 76 78 81 84 81 77 80 74 77 82 84 85 93 94 94 96 99 100 99 99 99 99 100 100 100 100 100 100 99 98 98 98 98 97 97 97
52 56 61 67 73 74 76 80 82 86 86 82 80 77 74 78 78 80 85 85 92 97 100 100 100 99 99 99 99 99 100 100 100 99 98 98 97 97 97 97 97 96 96
59 60 66 73 76 76 78 84 85 89 84 80 81 82 78 81 74 76 80 76 87 98 96 100 99 98 99 99 98 98 98 98 98 98 97 96 96 97 96 96 95 98 95
60 66 71 74 78 85 86 88 86 88 85 84 84 78 82 80 78 82 81 76 87 94 93 91 90 96 97 97 97 97 97 97 97 97 96 97 97 96 96 96 96 98 93
67 75 76 78 85 95 90 90 92 88 87 89 86 84 84 80 77 79 82 85 92 90 85 89 93 93 96 99 97 96 96 96 97 97 97 97 96 96 96 97 97 97 96
74 80 86 86 89 97 96 97 92 92 92 90 88 87 82 77 76 78 83 84 88 86 85 88 90 95 99 100 98 98 97 97 96 96 98 98 98 97 96 97 97 96 97
88 88 96 96 92 92 95 100 96 98 96 94 93 87 83 78 76 80 82 90 88 78 83 87 91 92 95 96 97 98 99 98 97 97 97 97 97 96 96 96 96 96 96
96 100 100 94 91 94 96 99 95 100 100 94 96 89 83 80 78 79 79 84 99 99 98 96 76 72 89 95 96 96 96 96 98 97 97 97 96 96 96 96 97 96 96
96 96 98 90 91 94 100 100 93 100 99 97 98 96 96 89 79 80 84 96 100 100 100 100 100 98 87 53 71 84 93 95 96 96 96 96 97 97 96 96 96 96 96
94 94 92 87 96 99 100 100 100 100 99 95 86 84 82 81 79 80 82 94 100 100 100 100 100 90 87 94 91 53 32 35 52 76 93 95 96 96 96 96 96 96 96
96 96 92 89 95 99 100 100 100 100 93 87 86 87 84 79 82 85 86 85 85 90 90 86 82 89 98 100 99 97 84 93 85 61 52 46 44 48 54 59 60 58 58
98 97 95 93 96 97 98 100 100 100 94 88 87 90 88 86 86 86 88 88 86 85 85 86 84 84 82 77 83 92 88 99 100 99 98 99 99 99 98 97 96 96 97
97 96 96 95 92 96 100 100 99 93 86 85 88 88 87 85 85 87 87 86 85 84 83 82 84 84 82 81 83 84 85 88 90 91 90 90 95 100 100 100 100 100 100
95 96 98 96 91 96 100 98 94 90 88 86 83 83 86 87 86 86 84 84 84 82 80 79 78 81 80 80 80 81 84 82 80 82 80 80 80 91 100 100 100 100 100
95 98 98 93 92 99 99 95 94 92 87 84 83 84 85 85 85 84 83 82 80 78 76 76 77 76 75 74 72 72 72 72 72 71 71 74 74 80 84 93 100 100 100

GFSGL_850_rhum_216.txt.gz
RH
54 47 36 36 35 27 18 14 13 12 10 9 8 8 13 18 25 36 47 54 57 62 65 72 69 79 86 87 88 92 93 97 100 99 100 97 96 89 96 88 92 87 77
50 44 39 35 25 18 14 13 13 12 9 8 10 16 20 26 38 48 53 57 65 64 63 61 60 66 68 76 92 98 97 98 99 99 100 97 94 83 97 92 96 96 90
50 49 48 35 22 16 14 13 13 10 9 12 17 17 27 42 51 55 60 62 62 62 62 66 67 69 87 100 100 97 99 99 99 100 99 90 97 99 95 85 82 97 95
50 51 44 28 18 15 14 16 12 11 12 14 16 31 43 51 55 60 61 60 60 61 66 67 71 88 100 99 100 99 99 100 100 100 100 100 100 98 99 96 86 92 94
53 52 42 26 17 14 18 14 14 18 17 17 35 44 51 56 62 60 57 57 62 65 65 68 76 92 100 100 100 100 100 100 99 100 100 100 99 98 99 99 98 100 100
54 60 45 24 16 19 16 21 31 28 17 37 47 51 56 62 60 58 57 61 68 68 70 74 74 86 98 90 89 96 100 100 99 100 100 100 98 99 99 98 100 100 100
61 57 39 20 20 18 27 32 24 17 38 50 53 56 61 60 56 56 63 67 68 72 78 83 83 90 92 94 90 100 100 100 100 100 99 100 99 99 99 98 99 100 100
61 52 26 21 20 19 21 29 21 31 52 57 57 60 62 60 58 61 63 68 70 76 82 86 95 96 93 99 93 93 99 100 100 100 100 99 98 98 98 99 100 99 100
55 40 26 23 21 41 52 59 24 46 56 58 59 63 62 62 61 64 65 68 72 76 80 90 100 93 94 88 88 90 94 100 99 99 100 99 99 99 100 99 100 100 99
50 34 27 27 27 29 29 25 36 55 60 59 62 64 62 63 66 67 68 72 73 78 84 89 93 100 86 84 94 99 98 99 98 100 100 100 99 100 99 100 100 100 98
56 48 35 34 36 32 28 35 51 59 59 66 67 67 67 69 68 70 72 72 79 87 91 90 93 98 85 81 94 100 100 100 98 99 100 99 98 100 100 100 100 100 99
51 42 41 40 34 36 40 50 59 60 64 68 74 92 97 72 70 70 71 77 88 92 99 98 99 96 89 82 91 98 100 98 99 99 99 100 100 100 100 100 100 99 99
54 57 63 46 51 53 52 60 63 67 69 84 98 98 92 73 71 72 74 79 87 93 100 100 100 94 86 84 87 90 97 97 98 99 99 99 99 99 99 98 99 98 98
88 74 54 54 57 56 68 71 71 70 82 99 95 81 87 76 72 75 77 84 88 98 100 99 92 97 97 87 85 87 96 95 95 96 96 98 98 98 98 98 96 98 96
96 87 59 58 60 70 76 73 75 84 91 98 85 71 73 73 76 77 82 86 95 99 100 94 91 94 94 100 98 93 92 96 92 94 97 97 96 96 97 97 97 97 94
86 63 60 62 72 75 76 80 88 87 85 82 83 76 72 74 81 81 85 92 100 100 98 100 100 100 100 100 100 100 97 97 100 97 93 96 96 96 96 97 96 97 96
66 60 58 71 81 80 83 87 89 93 89 88 83 80 74 73 79 85 95 98 100 100 100 100 100 98 100 100 100 100 100 100 98 100 96 93 95 96 96 96 96 96 96
58 54 58 69 84 99 100 99 93 90 89 88 86 81 74 74 76 86 96 100 99 100 99 99 100 99 92 94 98 100 100 100 99 98 99 98 95 95 96 96 96 96 95
55 57 68 83 99 100 100 100 100 100 100 98 95 94 94 78 78 85 100 100 100 99 99 100 100 100 95 94 94 92 90 95 99 98 96 96 97 96 96 95 96 95 95
69 74 88 99 100 99 99 100 100 100 98 100 100 99 100 100 100 100 100 100 100 100 100 100 100 100 100 99 97 95 92 89 90 95 100 98 96 96 96 96 97 97 97
82 90 100 100 100 98 100 100 100 99 100 100 100 100 100 100 100 100 100 100 100 100 100 100 100 100 100 96 81 92 97 97 94 92 92 95 96 95 97 96 96 97 96
78 88 100 100 100 100 100 99 99 98 100 100 97 99 100 100 100 100 100 100 98 93 91 99 100 100 100 100 100 90 81 87 95 98 96 96 96 96 95 96 96 96 96
100 100 100 98 98 100 100 100 100 100 100 100 99 100 100 100 100 98 93 86 82 83 78 76 79 85 90 93 100 100 100 98 97 90 91 98 97 94 95 95 95 95 95
100 100 100 100 99 100 99 100 99 100 100 100 100 100 100 100 100 97 84 82 79 76 75 76 78 83 82 85 87 90 94 98 100 100 99 96 98 100 99 99 99 100 100
100 98 93 97 100 99 99 99 99 100 100 100 100 100 100 99 96 84 78 76 75 74 75 75 77 77 78 78 78 76 77 79 84 88 89 91 92 94 94 98 96 97 97
100 96 91 94 100 100 99 100 100 100 100 100 100 100 99 90 80 76 74 73 71 72 73 72 72 71 71 71 72 72 70 66 65 70 75 81 83 90 92 94 94 92 90

GFSGL_850_rhum_219.txt.gz
RH
78 91 99 100 87 68 51 39 33 21 14 13 11 8 7 9 12 18 28 37 39 46 51 54 55 61 63 67 72 76 99 100 100 98 98 96 97 89 90 89 83 86 85
72 91 79 64 53 46 39 31 18 14 14 13 9 8 9 15 22 33 40 41 45 52 54 56 61 67 68 73 82 96 100 98 100 98 99 97 93 89 91 91 85 84 80
70 80 58 47 44 40 35 20 14 14 14 10 10 10 16 25 35 40 40 45 52 55 58 61 63 68 71 77 95 99 100 99 99 100 98 100 100 100 98 95 94 91 77
63 61 53 44 41 37 22 16 15 15 13 16 23 18 26 37 35 39 46 52 54 56 59 60 62 66 80 90 90 97 99 100 99 100 99 100 99 98 99 98 98 100 94
57 54 49 46 41 31 19 16 17 14 34 36 20 26 35 33 38 48 52 53 55 56 59 57 60 71 75 77 92 88 98 99 99 100 100 100 99 100 99 98 100 99 98
54 52 50 46 43 28 22 20 17 38 34 23 27 30 26 39 49 52 51 56 59 59 56 58 63 69 71 75 76 84 89 100 100 100 100 100 98 100 99 98 99 100 100
53 52 50 48 39 28 22 19 38 30 23 24 29 32 37 51 55 53 55 57 61 62 62 61 63 72 78 76 76 81 87 90 100 100 100 99 100 100 99 98 99 100 100
53 53 52 50 38 26 23 32 26 28 32 35 36 32 52 56 57 58 60 59 62 64 66 69 72 78 82 79 83 91 87 100 98 100 100 100 99 99 99 99 100 99 100
54 57 56 49 33 24 26 38 42 46 36 38 34 53 58 58 60 60 60 61 62 64 68 74 80 83 79 81 87 86 95 100 99 100 100 100 99 98 100 100 100 99 99
56 61 56 49 26 23 38 45 45 43 48 37 56 69 62 60 60 60 60 59 62 67 71 77 86 85 88 89 83 89 98 100 98 98 100 100 98 98 100 99 99 98 99
57 62 56 37 28 34 38 42 50 51 48 63 78 79 70 66 63 62 60 62 65 69 72 75 80 86 91 83 82 92 100 100 99 99 98 100 98 98 99 100 99 100 99
59 59 50 31 34 39 52 60 62 58 68 82 86 78 76 70 62 61 64 68 71 73 74 76 90 99 88 80 80 90 96 100 99 99 99 99 100 99 99 99 99 100 100
65 53 42 52 51 60 69 71 64 74 90 89 83 85 86 65 63 64 68 74 77 77 80 86 98 99 87 80 80 83 86 92 99 99 98 100 99 99 99 99 99 100 100
62 69 62 64 90 98 99 79 73 91 91 84 86 85 73 63 64 68 75 79 79 84 97 99 99 92 96 82 78 79 80 84 92 99 98 99 100 96 93 97 97 99 100
67 85 99 99 99 99 93 90 96 97 96 84 83 73 66 65 66 72 79 79 87 96 100 97 91 86 93 91 88 82 81 85 86 96 97 98 100 98 94 96 97 95 91
98 100 100 100 98 89 97 99 100 100 99 93 79 71 68 67 69 74 78 87 100 100 99 95 88 99 97 100 100 98 84 88 90 91 93 96 98 98 97 97 96 96 92
100 100 97 80 91 97 97 97 95 98 97 90 81 74 71 70 77 83 93 100 99 100 100 99 87 90 100 100 100 100 98 91 91 88 90 93 93 95 96 95 95 96 96
98 95 84 94 98 98 100 99 92 88 88 87 82 74 71 73 82 94 100 100 100 100 100 100 99 92 91 92 95 99 100 97 91 90 89 90 92 94 94 96 97 95 95
86 91 91 95 98 100 99 97 96 92 90 86 86 83 76 75 86 100 100 100 100 99 99 100 100 94 91 89 88 86 91 95 94 92 92 92 92 93 94 95 95 96 95
89 91 89 96 100 100 100 100 100 100 100 100 100 100 100 100 100 100 100 100 100 100 100 100 100 100 99 94 90 89 87 87 89 93 98 98 95 91 92 95 96 96 96
89 98 93 100 100 99 99 100 100 100 100 100 100 99 100 100 100 100 100 100 100 100 100 100 100 100 89 77 95 91 88 91 92 91 91 92 97 96 93 92 93 94 94
87 92 100 100 100 100 100 100 98 98 99 98 100 100 100 100 100 100 100 100 95 99 100 100 100 100 100 99 68 66 78 88 92 93 95 95 94 95 98 97 96 95 96
78 91 100 100 99 99 99 98 99 98 99 100 100 100 100 100 100 100 99 91 91 84 88 94 97 99 100 100 100 98 80 70 74 86 88 89 91 93 96 97 98 97 96
97 100 98 99 100 96 97 97 99 100 100 100 100 100 100 100 100 99 84 78 82 81 84 87 91 93 94 90 87 90 98 100 100 96 89 76 73 83 89 92 94 94 96
90 100 100 98 99 96 96 98 98 100 100 100 100 100 100 100 100 91 80 77 75 74 75 75 78 78 76 74 72 72 75 79 81 95 97 95 94 95 95 96 97 97 96
100 100 100 99 99 98 98 99 99 100 100 100 100 100 100 100 91 81 77 75 73 71 70 72 74 73 71 68 66 63 60 62 70 74 76 80 85 91 94 93 93 91 93

GFSGL_850_rhum_222.txt.gz
RH
62 71 77 81 88 96 99 100 99 82 75 49 34 23 16 11 8 8 10 15 25 34 43 47 49 48 46 48 52 58 66 80 100 96 84 91 99 98 96 90 89 83 84
72 78 82 91 98 100 100 98 79 84 48 50 24 15 11 9 9 12 18 28 36 43 47 48 46 46 48 54 60 65 86 93 100 100 96 82 80 96 98 100 86 91 96
81 85 89 99 98 100 87 79 78 44 40 23 16 12 11 13 18 23 30 38 42 47 48 44 46 48 50 58 68 91 98 92 94 99 86 82 98 98 98 98 99 100 100
85 79 79 96 98 94 88 65 46 39 21 16 13 14 24 23 24 30 38 45 49 47 46 48 49 52 56 65 78 89 86 86 87 91 86 94 92 89 99 100 98 95 98
77 74 81 95 93 74 58 49 42 22 16 15 21 32 23 24 29 33 44 50 46 46 50 52 52 54 60 73 83 79 86 87 92 100 96 98 98 99 100 99 98 98 95
75 76 76 72 60 50 47 42 26 18 17 30 33 24 26 32 35 41 51 49 47 50 52 54 57 59 67 73 77 77 80 93 100 99 98 98 99 100 100 98 99 99 99
73 71 65 59 53 48 44 32 21 18 31 36 25 31 38 40 44 48 50 49 52 53 54 57 58 65 72 73 71 70 74 91 100 100 99 100 99 100 99 99 99 100 100
69 65 60 56 52 49 41 26 20 26 35 28 36 40 44 49 52 53 51 53 54 55 56 58 61 69 73 71 68 66 70 93 97 98 100 100 100 98 99 99 100 100 99
66 60 57 54 52 48 37 25 22 33 34 42 43 49 54 55 56 53 55 56 56 59 60 63 67 70 70 70 68 66 70 90 99 100 100 100 96 98 98 99 99 100 100
66 61 57 55 53 48 35 22 32 41 50 45 53 60 63 62 56 54 59 57 59 62 66 69 66 66 68 67 70 70 74 92 100 99 99 98 96 97 98 99 100 100 100
66 60 56 56 53 47 31 27 47 49 50 60 70 74 80 68 58 59 59 58 62 65 66 68 69 67 67 70 71 72 81 98 98 99 98 100 99 98 98 99 100 100 100
66 60 59 59 56 43 26 44 47 52 61 71 79 81 82 77 67 61 58 61 65 66 69 69 68 67 72 73 70 74 85 96 100 99 98 98 98 100 100 99 98 99 100
65 62 64 64 56 34 40 45 62 68 74 75 78 81 80 75 68 61 62 64 70 72 69 67 69 71 72 72 71 74 79 81 85 87 92 94 97 95 100 98 98 98 100
70 73 72 64 46 50 60 82 83 90 96 99 82 80 80 79 68 65 65 68 71 74 70 72 72 70 70 72 74 76 76 79 82 86 87 92 95 97 92 96 98 99 97
83 79 64 60 76 94 99 98 97 99 98 82 79 82 78 70 67 68 77 81 81 78 80 82 74 73 74 78 76 78 80 80 81 88 92 93 93 92 89 94 95 97 95
78 81 95 98 100 100 98 98 99 99 90 97 95 88 75 73 73 77 84 91 91 95 86 85 85 78 82 92 95 83 81 81 83 84 86 91 90 88 89 92 93 96 96
88 99 100 100 100 98 99 96 93 100 100 100 97 84 76 76 81 86 92 100 100 97 89 83 82 80 84 90 100 90 82 82 83 83 87 89 89 87 90 92 95 94 95
99 100 100 100 98 97 93 93 96 94 98 99 86 78 76 82 94 99 100 100 100 100 100 90 85 84 80 83 95 99 91 86 81 82 85 90 91 89 86 88 95 94 95
100 99 98 96 94 93 97 99 98 99 100 89 84 80 79 90 100 100 100 100 100 99 100 100 90 86 83 82 80 80 85 92 84 82 83 88 93 94 91 90 90 92 93
99 97 93 94 99 100 100 100 100 99 95 91 89 86 86 98 100 100 100 100 100 100 100 100 99 95 90 86 82 84 83 83 84 83 84 86 86 89 91 91 91 92 92
92 99 97 99 100 99 98 98 96 95 95 96 96 98 98 98 100 100 100 100 100 100 100 100 100 96 87 94 93 88 84 85 88 89 87 86 88 86 87 93 96 96 96
83 89 95 100 100 100 100 96 98 97 97 96 96 99 100 100 100 100 100 100 100 100 100 100 100 100 93 71 78 82 88 87 90 92 90 89 90 89 91 91 92 95 96
78 92 99 99 99 100 100 98 96 97 96 96 99 100 100 100 100 100 100 100 100 100 100 100 100 100 100 100 97 75 63 71 84 94 90 89 92 95 96 92 92 92 94
91 100 99 100 100 98 94 97 97 97 96 99 100 100 100 100 100 99 96 95 95 94 92 93 97 100 98 97 94 90 88 90 90 87 84 84 89 89 93 96 98 96 95
100 100 99 99 98 96 97 96 97 96 99 100 100 100 100 100 100 99 98 97 89 80 78 79 81 76 73 76 74 70 73 78 81 87 87 84 83 84 85 88 92 92 90
100 99 100 98 95 96 94 96 95 98 100 100 100 100 100 100 100 100 97 83 73 69 68 72 69 67 64 60 56 56 60 68 70 76 82 86 87 90 89 86 88 84 84

GFSGL_850_rhum_225.txt.gz
RH
65 70 63 67 78 85 85 92 93 94 95 100 100 96 70 65 33 20 12 10 10 11 16 22 31 38 42 45 48 52 58 69 95 82 78 91 91 99 95 100 100 100 99
72 67 62 82 95 99 94 95 100 100 100 100 84 74 68 37 21 12 10 10 16 20 24 31 38 41 43 46 48 52 56 59 93 99 72 72 76 97 98 100 96 100 100
69 63 74 97 98 99 95 99 98 100 96 90 76 65 42 25 13 11 14 22 19 23 30 38 41 42 44 47 50 55 60 68 75 93 86 83 95 95 98 99 95 100 95
76 75 81 96 95 97 100 97 100 90 94 70 74 48 28 14 12 24 20 19 24 32 40 43 45 47 46 49 56 62 69 70 73 83 98 100 100 98 99 100 94 94 90
82 86 97 97 95 100 96 94 96 91 68 79 48 26 14 14 30 19 25 31 38 42 44 47 50 49 49 55 62 68 70 71 76 98 98 99 100 100 100 99 100 97 86
81 92 99 99 98 98 92 93 82 74 65 44 26 16 17 32 21 33 35 40 45 47 50 52 51 51 58 62 67 69 73 74 86 100 99 99 99 100 99 100 99 100 98
84 97 100 100 90 90 91 82 74 66 48 31 18 21 36 25 40 38 39 48 50 52 54 54 52 56 60 65 68 68 70 76 99 99 99 100 98 99 98 98 100 100 100
82 97 97 89 85 90 84 79 64 51 39 20 21 38 28 41 38 41 50 52 53 54 54 53 57 59 63 64 64 65 68 79 100 100 98 99 100 100 100 100 100 99 98
80 88 87 81 82 86 76 62 51 42 25 20 39 30 40 38 45 52 53 55 56 57 53 56 58 61 61 61 63 63 68 82 100 98 100 99 97 96 92 94 100 98 98
64 77 81 78 74 72 59 53 48 33 21 34 33 44 44 50 55 57 56 58 58 54 55 60 62 62 61 62 63 65 66 75 91 100 100 99 95 98 96 98 98 99 99
63 76 79 76 70 64 58 51 42 28 35 38 49 45 52 60 64 67 64 62 57 59 61 66 69 69 62 62 64 64 67 76 96 98 100 99 99 97 98 99 98 99 100
69 79 78 70 67 63 58 50 37 31 42 53 49 56 65 76 79 80 81 64 60 64 66 69 70 66 62 63 64 63 73 79 88 99 97 96 99 93 97 98 100 95 98
79 83 80 73 71 66 61 48 39 47 55 57 61 65 75 93 98 90 59 63 71 68 69 68 69 66 63 65 66 70 72 76 80 82 83 83 92 94 100 95 92 92 90
82 88 85 82 79 73 62 47 46 55 60 66 81 97 98 98 91 65 64 73 76 74 74 74 73 73 70 68 71 71 70 75 79 82 85 89 94 95 90 90 91 92 96
96 98 95 91 87 75 60 55 61 71 87 98 99 99 96 86 69 65 70 77 82 92 93 86 88 83 84 84 78 74 74 76 77 81 87 90 87 87 86 90 88 91 94
98 100 100 93 80 64 66 93 100 100 100 99 99 92 89 76 65 66 73 90 98 100 98 99 96 96 87 86 78 76 76 76 77 81 84 85 87 86 88 88 90 90 90
96 99 96 77 72 91 100 96 89 99 98 98 100 94 86 74 70 67 88 97 100 100 100 100 100 98 95 95 87 81 82 77 78 80 82 84 88 90 91 91 93 92 91
99 88 78 89 90 85 96 100 100 98 96 98 100 98 86 74 75 90 95 100 100 100 100 100 100 98 91 84 89 92 94 87 81 82 84 85 88 89 91 93 96 94 92
85 86 90 98 100 100 100 99 94 93 97 97 95 81 75 79 90 97 100 100 100 100 100 96 95 93 87 80 78 76 77 80 80 81 83 87 89 88 86 92 95 96 93
99 100 100 100 99 99 98 98 99 100 100 93 82 76 80 86 99 100 100 100 100 100 99 100 97 95 90 84 81 79 78 79 79 80 82 85 88 88 87 92 95 94 96
99 99 99 98 97 97 97 99 99 99 97 88 82 80 80 89 100 100 100 100 100 99 99 100 100 96 92 89 87 82 82 82 83 81 82 82 86 86 90 91 93 94 95
98 98 99 97 100 100 100 100 99 98 93 90 92 95 98 100 100 100 100 100 100 100 100 100 100 87 75 74 73 68 82 84 86 87 86 85 84 88 91 94 95 95 96
95 95 99 100 100 100 97 97 97 95 94 94 93 95 99 100 100 100 100 100 100 100 100 100 100 100 100 82 68 59 66 74 81 86 87 86 88 89 92 92 94 96 96
91 97 100 99 100 96 96 96 95 96 95 96 96 98 100 100 100 100 100 100 100 100 99 100 100 100 98 90 83 83 87 88 84 76 72 85 85 90 94 93 94 95 95
89 99 100 100 100 97 96 95 97 98 98 97 96 100 100 100 100 100 100 95 86 92 98 99 96 84 76 70 67 65 71 76 80 81 83 80 79 88 89 91 92 91 85
100 100 99 98 97 96 97 97 96 97 96 96 100 100 100 100 100 97 95 81 79 84 93 85 72 66 60 54 54 57 60 60 60 68 79 83 83 83 84 84 84 79 84

GFSGL_850_rhum_228.txt.gz
RH
15 25 49 65 95 99 88 57 64 67 90 94 95 99 99 100 98 94 68 44 22 13 11 12 20 22 26 34 41 43 47 58 71 53 64 69 65 77 74 83 93 92 92
27 43 48 78 99 100 81 65 65 71 86 100 99 100 100 97 90 76 50 27 14 12 16 23 22 26 34 38 41 43 47 52 70 72 63 65 84 98 100 99 98 99 94
80 90 85 94 100 100 90 68 66 69 94 92 100 100 92 96 70 78 37 14 12 22 22 21 28 32 36 40 43 45 49 55 63 74 67 81 90 98 99 98 98 100 91
96 99 100 99 98 100 86 65 71 92 92 98 100 97 96 94 70 31 16 12 25 21 26 26 31 36 40 44 46 48 54 60 64 72 80 86 97 98 100 99 92 94 89
98 97 98 98 97 100 97 91 100 96 94 100 99 96 92 56 41 36 14 28 22 31 30 32 38 41 44 48 49 53 61 66 67 74 89 97 99 99 100 99 96 91 98
99 98 98 98 100 99 99 96 99 90 98 99 92 91 69 72 30 15 29 24 37 33 32 38 42 46 49 51 53 59 66 68 70 91 100 99 98 100 98 100 95 94 98
73 96 100 100 97 99 85 97 100 90 89 88 90 78 68 33 17 28 25 41 34 36 40 45 48 52 52 54 57 61 64 68 82 97 100 99 97 97 96 92 100 99 100
50 76 96 99 97 100 100 100 97 90 89 91 77 59 33 20 29 28 42 35 35 41 45 48 52 54 56 55 58 58 61 69 93 100 99 98 96 94 91 99 100 100 92
47 47 70 96 100 100 100 100 95 90 87 75 60 40 25 29 32 42 36 38 46 48 50 51 52 59 58 57 60 59 64 72 93 100 99 98 99 100 96 95 99 95 96
48 46 63 84 100 100 100 99 92 82 75 64 44 31 32 36 40 38 38 46 51 53 51 51 56 59 59 59 60 62 64 70 83 100 99 100 100 99 97 96 96 100 97
62 54 66 84 100 100 100 97 83 73 67 51 37 35 40 41 42 46 52 58 55 54 54 61 63 65 64 62 62 64 64 69 82 97 99 98 99 98 94 97 96 100 99
72 70 71 89 97 100 100 89 76 71 57 44 41 45 51 51 54 59 63 69 77 65 62 66 74 72 65 64 63 63 67 72 78 85 89 86 87 93 92 90 91 95 96
77 74 75 91 97 100 99 86 76 63 49 41 49 54 56 63 71 80 88 79 58 59 63 71 77 80 68 67 65 66 70 73 76 75 76 78 81 85 90 89 89 90 93
80 82 83 89 98 100 99 84 70 58 48 50 55 57 62 85 94 96 84 67 75 63 66 76 89 88 70 69 68 70 72 74 73 73 76 81 84 85 84 84 85 86 92
91 94 95 100 100 100 97 81 70 57 49 47 56 74 98 98 98 98 86 71 75 71 81 94 94 91 78 71 71 74 74 75 74 76 81 82 81 82 81 83 83 87 87
96 100 100 100 100 99 93 85 72 60 62 79 98 99 98 100 99 89 72 77 80 96 92 93 94 92 81 79 83 84 82 78 75 78 81 81 82 83 85 85 86 86 87
96 100 100 98 100 98 91 73 70 86 100 100 100 100 100 97 92 85 80 90 100 98 97 100 100 98 95 100 100 99 98 83 75 78 80 82 82 84 86 86 86 87 87
100 100 99 100 100 98 74 72 90 97 97 98 99 99 98 97 89 84 91 100 97 100 100 100 100 99 100 100 99 100 100 98 85 79 81 82 83 86 87 87 87 87 88
100 100 100 100 99 76 86 99 100 100 100 99 98 98 97 90 94 100 100 97 96 99 100 100 100 100 98 98 87 84 92 88 93 86 85 85 83 86 86 90 90 90 90
100 99 100 91 92 100 100 99 100 100 99 98 97 95 90 89 93 100 100 100 99 99 100 98 95 93 89 85 80 78 82 88 90 85 84 83 84 87 88 90 92 88 88
100 98 95 98 99 100 100 99 99 98 98 98 97 85 79 83 92 99 99 99 99 99 100 100 99 96 94 87 79 82 84 84 83 82 80 83 87 87 87 89 90 91 89
95 99 100 100 99 99 99 98 98 97 96 91 87 91 97 99 100 100 100 100 100 100 100 100 95 83 73 70 59 72 83 84 87 87 87 86 88 91 93 92 91 93 94
99 99 99 99 99 99 99 100 98 98 93 87 88 96 100 100 100 100 100 100 100 100 100 100 100 100 86 72 63 61 75 81 84 83 85 88 88 90 92 92 93 94 94
98 98 99 99 100 99 98 98 97 94 91 93 94 94 96 100 100 100 100 100 100 100 100 100 100 100 92 93 90 82 81 78 69 67 80 86 90 90 89 88 90 91 91
96 99 100 99 98 98 97 97 97 98 97 94 96 96 99 100 100 100 100 100 100 100 100 98 92 82 76 71 72 72 73 82 78 77 78 83 82 85 88 89 87 83 88
96 100 99 95 92 94 95 96 96 96 95 95 95 100 100 100 99 97 88 86 95 97 86 78 71 65 59 57 60 62 67 72 75 75 79 78 78 81 86 81 78 78 79

GFSGL_850_rhum_231.txt.gz
RH
20 19 17 16 18 27 44 84 99 79 67 67 68 74 83 85 90 100 100 100 99 92 79 21 13 12 23 23 26 30 35 41 47 45 53 54 52 56 52 60 71 79 76
25 24 25 32 34 37 76 99 99 84 84 68 66 83 90 89 99 100 100 100 90 59 32 14 13 25 23 28 30 34 40 43 50 51 52 55 58 62 63 67 73 83 80
30 38 36 42 75 97 98 98 99 98 93 76 80 92 95 100 100 100 98 96 86 56 20 14 26 24 29 31 35 39 42 44 50 57 58 58 65 71 69 78 84 83 90
54 93 94 99 99 98 100 99 100 99 88 81 93 100 100 100 99 97 96 90 83 30 15 27 27 31 31 35 39 42 44 46 55 62 62 60 75 82 87 86 82 87 86
55 92 97 98 100 100 99 100 100 100 99 100 100 100 100 99 97 96 92 78 29 19 28 28 33 34 35 39 41 43 45 51 60 62 62 77 94 95 96 92 90 92 77
51 78 98 99 100 98 100 100 98 100 100 100 100 95 93 95 94 95 56 26 28 28 31 38 33 39 37 39 41 44 50 58 60 60 68 97 97 93 91 88 90 100 100
50 60 97 99 100 100 100 98 98 99 100 100 100 98 92 94 97 57 37 29 29 31 40 32 36 39 42 44 46 48 53 56 58 63 78 96 97 95 94 89 91 99 100
50 54 84 100 98 100 99 98 99 99 100 99 98 99 96 94 74 60 35 26 30 41 37 39 43 44 46 48 51 53 56 58 63 74 94 96 96 94 96 93 94 97 92
58 62 64 96 100 99 99 100 100 100 99 97 96 93 90 82 74 42 21 30 41 38 44 46 47 49 51 50 53 56 58 62 68 76 98 99 97 99 96 93 91 93 93
53 57 67 73 96 100 100 99 99 100 100 97 92 92 87 78 46 25 33 41 40 44 46 50 50 52 58 54 57 57 58 64 72 83 100 99 98 99 99 95 94 96 98
52 58 64 77 81 100 100 100 100 100 100 95 94 86 77 47 30 35 42 45 49 52 52 52 56 60 58 58 56 57 59 59 66 82 93 99 98 98 92 89 88 94 100
55 57 61 73 83 97 100 100 100 100 100 97 89 74 49 38 42 46 50 51 56 56 64 60 60 60 60 57 57 59 59 62 70 74 76 77 77 78 77 79 83 87 92
54 60 67 78 87 99 100 100 100 100 100 90 76 57 46 49 53 54 55 59 71 70 57 59 64 67 62 60 60 61 64 69 71 73 75 77 76 75 76 80 80 82 88
54 73 82 88 90 100 100 100 100 100 94 82 65 51 50 57 57 64 77 79 64 56 58 68 74 72 68 66 69 71 72 72 72 74 76 74 73 74 77 77 78 83 90
62 86 97 97 99 100 100 99 100 99 89 78 61 49 50 56 68 85 86 80 77 61 65 77 79 78 76 80 81 82 74 72 72 74 75 74 74 77 78 76 76 79 81
82 99 100 100 100 100 98 100 100 99 92 85 62 47 55 75 92 93 90 90 78 70 79 81 86 86 87 81 85 84 78 72 71 73 74 75 76 78 78 78 78 80 84
96 100 99 100 100 100 99 100 98 99 87 71 63 78 92 96 99 99 99 86 81 81 83 89 98 92 87 86 90 92 87 80 74 73 74 77 77 78 79 80 80 83 87
100 100 100 100 100 99 100 100 97 84 79 86 100 99 100 100 100 98 88 86 91 97 92 97 100 95 92 89 93 94 86 90 79 74 77 78 77 78 79 81 83 89 99
100 100 100 100 100 100 100 100 82 79 96 98 99 99 100 99 97 88 89 84 86 90 96 100 100 94 91 88 98 93 91 91 91 79 80 78 76 81 81 82 86 86 98
100 100 100 100 100 100 100 94 90 99 99 99 98 98 97 98 96 100 98 94 92 90 100 100 100 96 85 83 79 80 85 92 86 80 79 78 80 84 85 87 88 96 96
100 100 100 100 100 100 100 93 100 100 99 98 98 98 97 90 93 96 97 97 94 92 94 92 92 89 85 80 77 79 82 80 77 75 78 81 82 84 86 89 88 87 93
100 99 98 98 98 98 99 100 100 99 98 98 98 97 97 91 95 97 95 95 97 96 97 92 91 90 83 72 68 80 82 81 81 81 81 84 85 86 87 89 90 90 90
98 98 98 99 100 99 100 99 99 98 98 98 97 95 98 98 98 97 97 98 96 97 98 93 81 71 66 57 58 76 79 81 82 84 85 84 86 88 90 90 91 90 90
98 99 99 99 99 99 98 98 98 98 97 96 94 98 100 98 99 99 98 98 98 98 96 99 96 86 81 75 64 65 66 67 74 80 81 87 88 88 87 86 87 89 90
99 99 99 98 98 96 97 97 97 95 89 89 97 98 98 98 98 99 100 100 100 99 100 98 87 78 73 72 72 73 77 78 73 71 77 84 85 85 85 84 84 86 90
98 99 97 98 97 97 97 95 92 93 95 96 96 95 96 99 100 100 100 100 95 94 94 87 70 60 56 58 62 66 73 74 72 71 72 76 77 82 79 73 76 82 89